Location: Brantley
(31.5822°N, 86.2569°W)
Time: 04:41:03
(UTC+00:00)

Vanguard 2 - Pass Details

Date: 20 February 2026
Orbit: 553 x 2896 km, 32.9° (Epoch: 5 March)

Event Time Altitude Azimuth Distance (km) Brightness Sun altitude
Rises 06:27:24 0° 195° (SSW) 6,015 - -68.3°
Reaches altitude 10° 06:35:39 10° 168° (SSE) 4,369 - -67.6°
Maximum altitude 06:38:59 12° 151° (SSE) 3,937 - -67.3°
Drops below altitude 10° 06:41:57 10° 134° (SE) 3,778 - -67.0°
Sets 06:47:25 0° 103° (ESE) 4,186 - -66.4°
